COSMOS 1018

Track COSMOS 1018 now!
10-day predictions
COSMOS 1018 is classified as:


NORAD ID: 10935
Int'l Code: 1978-056F
Perigee: 1,449.5 km
Apogee: 1,495.0 km
Inclination: 74.0 °
Period: 115.2 minutes
Semi major axis: 7843 km
RCS: 0.7262 m2 (medium)
Launch date: June 7, 1978
Source: Commonwealth of Independent States (former USSR) (CIS)
Your satellite tracking list
Your tracking list is empty





NASA's NSSDC Master Catalog

Two Line Element Set (TLE):
1 10935U 78056F   15123.51951009  .00000002  00000-0  11675-3 0  9991
2 10935 074.0265 327.8430 0028952 047.3196 336.8953 12.49853493683919

Source of the keplerian elements: AFSPC

N2YO: 5154